Theta_e
334 335 335 335 333 335 334 333 332 333 331 330 330 330 330 331 335 336 335 333 331 334 334 333 334 336 339 339 338 337 334 329 319 321 323 325 323 322 323 323 325 325 324
332 334 335 335 335 335 334 333 332 331 330 329 329 329 329 332 333 333 331 330 331 331 333 333 332 334 336 337 334 333 331 327 321 318 321 322 322 323 323 325 326 328 326
331 332 334 333 334 335 334 335 331 330 329 329 330 328 330 332 333 332 330 331 331 332 333 334 334 335 334 334 332 330 329 326 323 320 320 323 322 322 324 325 326 327 329
330 331 332 333 333 335 333 332 331 329 329 332 330 331 331 331 332 332 328 331 331 332 333 335 334 335 335 333 331 328 325 323 322 322 321 321 322 324 324 321 320 323 323
329 330 332 333 334 333 332 332 331 330 331 332 331 331 332 332 330 333 333 333 329 330 333 332 332 326 324 329 329 329 325 323 322 321 320 320 320 321 319 320 318 321 322
328 329 331 331 331 332 332 333 332 333 331 333 331 330 332 329 307 313 323 334 332 332 329 328 328 326 318 314 318 320 323 323 321 320 320 318 319 321 322 317 317 317 315
328 329 329 330 330 331 331 330 330 334 336 333 331 332 332 329 306 306 311 334 335 334 333 332 328 326 325 327 313 313 314 313 318 323 320 320 320 325 323 320 323 323 321
327 328 329 329 330 330 331 332 333 336 334 333 333 333 332 326 306 305 310 335 336 334 334 333 330 331 329 329 328 328 326 325 324 324 322 323 324 325 329 328 329 331 328
326 327 328 330 330 331 330 333 336 337 336 335 334 333 332 328 304 303 316 334 332 333 333 333 333 331 309 310 330 325 322 319 313 312 314 312 310 312 323 329 326 323 319
326 328 329 330 330 330 332 334 335 336 334 334 333 334 322 330 304 301 315 333 332 331 334 332 310 323 305 308 331 326 321 321 324 323 326 314 319 323 312 337 330 323 321
326 329 330 332 331 334 334 334 334 333 333 335 333 334 333 330 323 302 304 334 333 332 328 329 326 300 304 309 316 327 325 326 320 329 330 331 333 330 328 331 334 332 325
325 328 330 332 331 333 335 333 332 333 332 334 333 332 331 332 314 304 303 309 316 332 327 329 318 300 301 308 318 303 305 316 331 330 329 329 327 323 327 332 339 333 334
325 328 330 332 331 334 333 330 328 330 330 331 330 329 328 330 328 304 306 305 311 333 331 312 300 299 298 304 301 303 306 329 328 326 324 325 326 328 335 336 335 332 330
324 327 329 329 330 332 330 329 326 326 328 328 327 327 328 329 329 329 329 326 309 321 311 320 315 311 303 312 312 313 329 330 329 328 328 328 331 332 331 331 325 322 319
326 326 328 328 330 330 331 328 326 331 322 326 328 329 329 328 329 321 323 329 331 323 326 328 327 328 327 322 323 326 328 329 329 329 326 326 327 328 326 326 322 319 315
327 325 325 326 328 329 329 329 298 303 304 304 302 315 327 310 305 304 304 302 302 305 326 326 325 326 326 325 324 324 325 321 326 325 325 324 322 322 322 322 321 318 316
330 329 324 321 326 329 328 328 326 317 302 305 303 301 303 310 301 300 298 297 299 305 327 327 326 327 326 326 326 325 324 325 330 326 326 324 323 322 318 320 319 319 318
332 309 326 323 323 324 328 329 329 327 325 325 305 308 299 298 299 298 296 303 320 313 326 327 327 327 327 326 326 325 325 326 326 326 325 326 325 322 320 319 319 319 319
327 325 325 324 322 319 323 325 327 327 327 325 324 307 300 293 293 294 296 324 322 321 321 323 325 325 324 324 326 325 326 326 325 327 327 326 326 324 322 320 319 306 310
329 314 317 324 322 321 321 322 322 323 323 323 322 323 321 311 316 316 319 323 323 322 322 320 322 324 323 323 323 322 322 323 324 326 326 326 327 326 323 321 320 318 316
327 327 315 323 322 321 321 321 322 321 322 322 323 322 309 322 323 322 321 321 321 322 324 323 323 323 324 326 326 325 324 323 323 324 324 326 327 324 326 324 322 320 313
330 328 326 323 322 321 323 321 322 321 321 321 323 320 298 325 323 324 326 325 324 326 325 327 325 324 324 324 325 326 325 325 325 325 325 324 325 325 325 323 321 318 311
332 330 328 326 324 315 322 321 321 321 321 321 322 322 322 326 324 324 326 329 330 328 327 327 328 327 326 327 327 326 325 325 326 327 326 326 324 324 324 323 321 312 309
332 331 331 328 325 324 325 325 323 311 320 321 324 323 325 326 326 326 326 329 330 331 330 328 328 326 328 329 328 326 325 326 326 325 326 326 325 320 323 322 319 313 310
330 333 333 331 327 325 325 325 324 325 323 323 324 324 323 326 326 326 327 327 329 331 331 331 329 327 327 327 327 326 316 294 317 310 324 324 325 325 323 321 318 312 309
329 331 334 332 330 329 328 327 327 327 326 326 325 326 326 325 326 329 329 329 328 329 331 331 331 330 327 326 327 314 296 292 308 293 324 327 324 323 322 320 316 311 303
Wind_Speed
11 8 7 5 7 6 4 6 5 6 5 5 5 4 3 2 1 1 3 3 4 4 4 5 4 2 2 4 5 5 7 10 13 8 8 12 15 14 12 12 11 7 8
10 9 6 6 4 5 6 7 7 6 5 5 4 4 4 5 2 2 4 2 5 5 5 5 4 4 5 7 7 7 7 14 16 19 10 10 12 13 13 11 9 8 9
10 10 8 6 5 4 5 6 7 7 6 6 5 4 6 5 5 7 6 3 0 3 3 5 7 9 9 8 9 10 10 10 12 16 8 9 9 10 8 11 9 9 6
10 9 8 5 6 7 7 7 7 7 7 4 4 4 6 6 4 7 6 4 3 2 2 6 7 9 11 12 11 12 12 11 14 11 12 11 10 8 9 10 9 7 8
9 9 8 6 7 8 7 7 7 7 3 3 4 5 6 5 6 5 6 8 7 5 8 9 10 9 7 12 11 12 15 11 11 11 10 10 9 8 10 8 9 8 9
10 10 9 9 9 8 7 6 4 5 6 4 3 6 5 7 9 11 8 6 7 6 7 8 7 11 13 11 14 13 13 16 14 12 10 11 9 10 9 9 9 9 8
11 11 11 10 10 9 8 8 8 7 4 7 7 5 8 8 8 9 9 5 8 8 9 10 9 8 11 15 17 17 16 14 10 13 15 11 10 8 11 10 10 9 8
12 12 12 12 11 9 6 7 6 5 4 3 4 9 6 7 4 5 8 7 6 8 9 12 8 13 11 13 15 15 13 10 13 8 9 9 7 7 8 10 11 10 10
13 12 12 12 10 11 8 7 7 7 6 6 5 8 8 8 3 2 7 8 5 9 10 9 10 14 12 12 16 15 12 9 11 12 10 8 9 10 8 8 9 9 10
13 12 12 12 11 9 8 7 7 7 7 7 6 6 10 9 4 2 5 6 9 7 9 10 13 12 9 10 14 14 13 12 13 10 9 4 9 7 4 7 7 8 8
13 13 12 11 11 11 8 6 6 6 7 7 8 7 9 10 7 3 7 7 7 8 11 11 9 8 11 9 12 10 13 13 12 12 10 8 8 7 7 5 6 1 6
13 14 12 12 10 10 9 7 7 6 7 6 9 8 8 8 7 5 7 6 4 8 10 11 7 7 9 9 7 12 15 13 11 11 11 10 9 8 8 6 4 5 4
14 13 13 12 9 11 9 8 7 7 7 8 8 7 8 8 7 6 4 9 9 2 10 12 11 9 11 10 9 11 14 9 10 11 11 10 10 9 9 7 6 8 8
15 14 13 12 10 11 9 8 7 7 6 9 9 6 7 8 9 8 7 7 10 10 13 9 6 7 5 10 6 6 8 8 8 8 10 10 9 9 8 8 7 6 7
14 14 13 12 11 11 9 7 7 7 5 5 6 10 10 9 9 10 11 9 8 9 11 8 7 7 9 9 9 9 7 7 6 8 8 8 8 8 9 9 8 8 7
13 13 12 11 12 11 10 8 11 8 10 10 12 5 7 8 18 13 9 10 13 14 8 9 9 8 9 10 10 8 8 7 7 7 9 9 10 10 9 9 9 9 8
13 13 12 12 12 11 11 10 10 4 9 9 11 11 6 14 16 15 12 10 8 10 8 10 10 10 10 10 9 10 9 9 8 8 9 8 8 9 9 9 9 10 10
16 14 12 13 12 12 12 11 10 12 10 9 2 5 9 11 14 14 13 11 6 5 9 9 9 10 10 10 10 11 11 10 9 9 9 9 8 9 10 10 10 10 9
16 14 14 13 12 13 12 12 11 12 13 12 12 5 9 10 8 7 12 10 10 10 11 10 10 10 10 10 10 10 10 9 9 9 8 8 9 10 10 11 11 10 11
15 16 15 13 12 12 12 12 12 12 12 12 13 14 11 9 9 9 10 12 12 12 12 12 11 11 11 11 11 10 10 9 9 9 10 10 10 11 11 11 11 10 10
14 15 14 14 13 13 13 13 12 12 12 12 12 14 18 15 14 14 14 14 14 13 12 12 12 12 11 11 11 11 11 11 11 11 11 12 10 11 10 9 10 10 10
14 14 16 15 14 14 13 13 13 13 13 13 12 10 19 15 14 14 15 14 14 14 12 11 11 12 12 12 12 11 12 12 12 12 12 11 10 10 10 11 11 11 12
15 17 16 15 14 13 12 14 14 14 14 14 14 12 14 14 13 13 13 13 13 13 13 13 12 12 11 11 10 11 12 11 11 11 11 11 11 11 11 11 11 12 13
17 17 16 16 15 15 14 14 13 15 15 14 13 12 14 13 13 14 12 12 12 12 12 11 12 15 12 12 10 11 12 11 11 12 16 12 12 11 11 11 9 12 11
16 15 15 15 15 14 14 14 15 13 14 12 12 12 13 13 14 13 12 12 11 12 13 12 11 16 19 20 17 18 14 11 14 11 11 14 14 13 11 11 11 12 14
16 15 14 13 14 14 14 14 14 14 14 13 13 12 13 13 13 14 13 14 13 13 14 12 14 20 20 18 21 18 8 9 9 9 10 9 10 10 10 11 17 12 15
Wind_Direction
155 162 132 154 160 151 161 162 149 159 171 200 194 229 225 173 74 209 188 231 180 237 133 220 213 240 138 112 91 93 109 111 120 100 120 120 112 113 112 115 126 132 120
168 141 145 140 148 152 180 157 164 173 190 215 202 226 244 91 81 167 135 158 178 199 220 221 165 178 101 108 94 85 114 133 134 125 133 115 118 119 127 121 111 114 123
168 153 144 135 155 157 175 142 171 163 197 214 189 190 73 62 81 90 59 142 230 196 209 192 174 129 116 116 104 99 96 113 124 122 124 120 115 131 115 109 115 110 110
163 161 141 150 144 150 148 154 167 179 180 206 168 104 114 107 84 108 121 122 47 59 196 115 121 122 129 122 117 107 111 119 119 108 120 130 127 119 112 122 110 114 136
157 138 131 131 139 141 150 162 163 170 152 141 140 134 84 114 69 51 96 108 110 56 56 55 64 61 110 130 132 130 132 133 125 124 120 119 125 129 130 127 128 143 132
156 133 143 144 140 139 146 134 145 159 158 134 122 114 183 85 38 29 20 107 117 115 102 79 80 84 70 82 102 117 127 137 133 133 134 134 138 141 142 143 142 150 143
156 145 140 142 137 149 161 155 148 143 155 159 159 116 101 101 43 17 358 85 108 117 116 124 102 89 91 102 92 98 92 87 109 139 136 145 148 160 133 143 145 149 147
154 152 149 154 148 148 145 143 123 117 119 125 132 122 133 105 74 5 330 94 98 112 125 112 115 117 109 115 112 113 113 106 116 116 125 144 152 161 152 153 170 128 124
158 155 165 144 145 147 157 145 148 150 155 156 171 152 150 128 124 331 319 103 103 102 108 109 122 114 119 131 123 111 105 97 91 114 139 190 178 178 166 154 155 147 153
163 164 167 152 146 139 138 150 160 163 160 141 149 162 126 123 149 331 327 100 114 108 110 102 73 99 96 137 119 120 126 137 139 143 173 136 181 146 194 189 164 159 167
164 164 162 149 156 131 139 148 164 195 104 110 126 136 126 127 127 38 4 130 128 135 119 122 104 68 86 98 128 134 136 141 148 162 173 179 165 161 174 210 207 54 175
167 166 165 152 178 145 148 153 167 122 139 138 129 143 122 125 117 81 46 59 11 138 127 119 105 77 76 88 147 129 139 152 161 160 165 166 160 175 183 198 111 63 2
169 168 165 165 189 146 161 165 156 181 151 164 146 141 136 134 128 90 83 52 52 117 118 104 125 117 111 92 109 129 159 167 162 163 164 167 172 177 151 146 117 107 92
171 170 169 174 184 159 174 178 173 181 178 166 152 140 152 154 143 151 147 131 119 107 119 134 120 108 70 117 147 175 217 171 169 163 161 164 160 140 162 168 159 145 124
174 175 176 183 188 169 196 178 193 183 179 186 157 154 160 165 154 151 158 158 156 146 142 147 167 170 156 163 168 187 177 169 192 156 156 147 162 174 173 172 175 168 158
179 181 183 185 182 182 191 161 51 43 88 55 61 61 128 116 132 145 115 109 116 149 166 172 181 187 183 179 176 182 164 192 196 168 163 178 179 181 173 180 183 186 177
188 183 185 202 179 195 191 188 176 91 64 60 63 66 43 141 138 134 123 113 137 161 209 186 188 197 196 194 197 192 191 187 200 194 185 192 190 193 175 189 193 196 190
185 186 199 200 189 200 194 196 189 177 185 188 221 93 115 142 145 139 138 145 163 215 223 205 207 201 206 208 204 206 205 196 199 210 201 197 202 201 191 207 203 204 199
185 197 201 187 208 195 197 201 200 191 186 191 178 141 102 85 84 122 165 197 197 204 212 234 211 211 209 215 215 213 215 208 198 206 215 209 205 211 208 209 211 198 184
193 207 190 204 200 196 206 201 203 205 191 193 186 182 165 156 175 184 199 219 218 209 212 218 234 219 214 211 213 215 215 211 207 200 212 219 212 212 218 208 222 193 188
196 196 201 214 197 199 205 203 205 203 201 198 199 184 164 191 196 197 198 209 222 230 221 216 218 227 228 219 215 214 215 212 209 211 212 218 217 215 215 224 216 188 175
199 200 191 210 210 202 199 207 205 208 205 205 202 181 157 189 205 207 206 205 214 222 233 229 227 223 221 226 220 216 220 218 218 210 213 220 221 216 218 218 221 172 171
209 202 190 202 215 202 189 204 207 210 211 209 207 185 181 196 208 212 211 208 204 214 219 228 229 228 230 225 223 223 223 225 221 215 214 215 221 221 212 216 213 170 179
207 212 201 191 211 205 201 200 207 207 213 214 208 214 183 202 210 222 224 212 209 208 212 225 224 235 228 229 224 220 226 220 222 221 220 218 218 218 215 211 205 171 179
218 216 211 191 199 215 201 201 208 208 205 218 214 208 220 197 204 215 216 232 222 210 213 211 223 224 231 233 229 230 224 200 217 221 228 225 223 226 216 209 176 180 168
231 228 226 199 189 203 218 198 202 205 205 200 214 217 210 221 213 202 209 218 225 222 209 214 218 224 228 228 232 232 217 191 195 213 233 246 226 220 221 195 187 184 146